Weather History for Kars, Turkey

Change the Weather History Date:

Wednesday, October 2, 2013

  Actual Average Record
Temperature  
Mean Temperature 54 °F -  
Max Temperature 70 °F 55 °F - ()
Min Temperature 38 °F 31 °F - ()
Degree Days  
Heating Degree Days 11    
Growing Degree Days 4 (Base 50)    
Moisture  
Dew Point 33 °F    
Average Humidity 40    
Maximum Humidity 61    
Minimum Humidity 17    
Precipitation  
Precipitation 0.00 in 0.05 in - ()
Sea Level Pressure  
Sea Level Pressure 30.00 in    
Wind  
Wind Speed 10 mph ()    
Max Wind Speed 28 mph    
Max Gust Speed 13 mph    
Visibility 6.2 miles    
Events      
T = Trace of Precipitation, MM = Missing Value Source: Averaged Metar Reports

Daily Weather History Graph

Daily Weather History Graph

Search for Another Location

Airport:

Trip Planner

Search our weather history database for the weather conditions in past years. The results will help you decide how hot, cold, wet, or windy it might be!

Date:

Astronomy

Oct. 02, 2013 Rise Set
Actual Time 6:05 AM EEST 5:48 PM EEST
Civil Twilight 5:37 AM EEST 6:15 PM EEST
Nautical Twilight 5:06 AM EEST 6:47 PM EEST
Astronomical Twilight 4:34 AM EEST 7:18 PM EEST
Moon 3:15 AM EEST (10/2) 4:12 PM EEST (10/2)
Length of Visible Light 12h 37m
Length of Day
11h 43m
Waning Crescent, 8% of the Moon is Illuminated
Oct 2
Waning Crescent
Oct 5
New
Oct 12
First Quarter
Oct 19
Full
Oct 27
Last Quarter

Hourly Weather History & Observations

Time (EEST) Temp. Windchill Dew Point Humidity Pressure Visibility Wind Dir Wind Speed Gust Speed Precip Events Conditions
12:50 AM 50.0 °F - 28.4 °F 43% 30.01 in - WSW 5.8 mph - N/A   Clear
1:50 AM 46.4 °F - 30.2 °F 53% 30.04 in - Variable 1.2 mph - N/A   Clear
3:50 AM 42.8 °F 41.1 °F 30.2 °F 61% 30.01 in - North 3.5 mph - N/A   Clear
4:50 AM 44.6 °F - 28.4 °F 53% 30.04 in - Calm Calm 12.7 mph N/A   Clear
5:50 AM 42.8 °F - 28.4 °F 57% 30.04 in - SSE 2.3 mph - N/A   Clear
6:50 AM 48.2 °F - 32.0 °F 54% 30.04 in - South 10.4 mph - N/A   Clear
7:50 AM 55.4 °F - 33.8 °F 44% 30.01 in - SW 9.2 mph - N/A   Clear
8:50 AM 60.8 °F - 30.2 °F 31% 30.01 in 6.2 mi WSW 10.4 mph - N/A   Partly Cloudy
9:00 AM 60 °F - 29 °F 20%  in 6 mi WSW 10.4 mph - -   Scattered Clouds
9:50 AM 64.4 °F - 33.8 °F 32% 30.01 in 6.2 mi WSW 11.5 mph - N/A   Scattered Clouds
10:50 AM 66.2 °F - 33.8 °F 30% 29.98 in 6.2 mi WSW 24.2 mph - N/A   Scattered Clouds
11:50 AM 69.8 °F - 33.8 °F 27% 29.98 in 6.2 mi WSW 27.6 mph - N/A   Scattered Clouds
1:50 PM 66.2 °F - 33.8 °F 30% 29.98 in 6.2 mi WSW 24.2 mph - N/A   Mostly Cloudy
2:50 PM 68.0 °F - 33.8 °F 28% 29.95 in 6.2 mi WSW 21.9 mph - N/A   Mostly Cloudy
3:00 PM 67 °F - 33 °F 17%  in 6 mi WSW 21.9 mph - -   Partly Cloudy
3:50 PM 66.2 °F - 32.0 °F 28% 29.95 in 6.2 mi WSW 23.0 mph - N/A   Mostly Cloudy
4:50 PM 64.4 °F - 33.8 °F 32% 29.95 in 6.2 mi West 18.4 mph - N/A   Mostly Cloudy
5:50 PM 59.0 °F - 35.6 °F 42% 29.98 in 6.2 mi WSW 15.0 mph - N/A   Mostly Cloudy
6:50 PM 57.2 °F - 35.6 °F 44% 29.98 in 6.2 mi WSW 10.4 mph - N/A   Mostly Cloudy
7:50 PM 59.0 °F - 33.8 °F 39% 29.98 in 6.2 mi WSW 13.8 mph - N/A   Mostly Cloudy
8:50 PM 59.0 °F - 35.6 °F 42% 29.98 in 6.2 mi WSW 17.3 mph - N/A   Mostly Cloudy
9:00 PM 59 °F - 34 °F 27%  in 6 mi WSW 17.3 mph - -   Partly Cloudy
9:50 PM 57.2 °F - 37.4 °F 48% 29.98 in 6.2 mi WSW 19.6 mph - N/A   Mostly Cloudy
10:50 PM 53.6 °F - 37.4 °F 54% 30.01 in 6.2 mi West 12.7 mph - N/A   Mostly Cloudy
11:50 PM 53.6 °F - 37.4 °F 54% 30.01 in 6.2 mi West 9.2 mph - N/A   Mostly Cloudy